F8983 Weather Reports


time (UTC)temp
F
wind
direction
speed
knots
gust
knots
rain 1hr
in
rain 24hr
in
rain mn
in
humidity
%
barometer
mb
20260507070510 53 360 0.0 1.7 0.00 0.00 0.00 84 1020.5
20260507070034 53 0 0.0 1.7 0.00 0.00 0.00 84 1020.6
20260507065514 53 355 0.0 0.9 0.00 0.00 0.00 84 1020.6
20260507065015 54 0 0.0 1.7 0.00 0.00 0.00 83 1020.7
20260507064529 54 0 0.0 1.7 0.00 0.00 0.00 83 1020.6
20260507064012 54 0 0.0 0.0 0.00 0.00 0.00 83 1020.6
20260507063516 54 0 0.0 2.6 0.00 0.00 0.00 83 1020.5
20260507063035 54 0 0.0 2.6 0.00 0.00 0.00 83 1020.6
20260507062511 54 0 0.0 1.7 0.00 0.00 0.00 83 1020.6
20260507062014 54 0 0.0 0.9 0.00 0.00 0.00 83 1020.6
20260507061530 54 0 0.0 0.9 0.00 0.00 0.00 83 1020.7
20260507061011 54 0 0.0 0.9 0.00 0.00 0.00 83 1020.7
20260507060511 54 0 0.0 0.0 0.00 0.00 0.00 83 1020.6
20260507060029 54 0 0.0 0.0 0.00 0.00 0.00 83 1020.8
20260507055509 54 0 0.0 0.0 0.00 0.00 0.00 83 1020.7
20260507055014 54 0 0.0 0.0 0.00 0.00 0.00 83 1020.8
20260507054531 54 0 0.0 0.0 0.00 0.00 0.00 82 1020.8
20260507054012 54 0 0.0 0.0 0.00 0.00 0.00 82 1020.8
20260507053510 54 0 0.0 0.0 0.00 0.00 0.00 82 1020.8
20260507053032 54 0 0.0 0.0 0.00 0.00 0.00 82 1020.8
20260507052509 55 0 0.0 0.0 0.00 0.00 0.00 82 1020.8
20260507052011 55 0 0.0 0.0 0.00 0.00 0.00 82 1020.8
20260507051528 55 0 0.0 0.0 0.00 0.00 0.00 82 1020.8
20260507051013 55 0 0.0 0.0 0.00 0.00 0.00 82 1020.8
20260507050509 55 0 0.0 0.0 0.00 0.00 0.00 82 1020.8
20260507050030 55 0 0.0 0.0 0.00 0.00 0.00 82 1020.9
20260507045512 55 0 0.0 0.0 0.00 0.00 0.00 82 1020.8
20260507045011 55 0 0.0 0.0 0.00 0.00 0.00 82 1020.8
20260507044533 55 0 0.0 0.0 0.00 0.00 0.00 82 1020.8
20260507044012 55 0 0.0 0.0 0.00 0.00 0.00 82 1020.8
20260507043513 55 0 0.0 0.0 0.00 0.00 0.00 82 1020.8
20260507043035 55 0 0.0 0.0 0.00 0.00 0.00 82 1020.7
20260507042512 55 0 0.0 0.0 0.00 0.00 0.00 82 1020.7
20260507042016 55 0 0.0 0.0 0.00 0.00 0.00 82 1020.8
20260507041531 55 0 0.0 0.0 0.00 0.00 0.00 82 1020.8
20260507041012 55 0 0.0 0.0 0.00 0.00 0.00 82 1020.7
20260507040511 55 0 0.0 0.0 0.00 0.00 0.00 81 1020.7
20260507040032 55 0 0.0 0.0 0.00 0.00 0.00 81 1020.8
20260507035511 55 0 0.0 0.0 0.00 0.00 0.00 81 1020.7
20260507035008 55 0 0.0 0.0 0.00 0.00 0.00 81 1020.6
20260507034532 55 0 0.0 0.0 0.00 0.00 0.00 81 1020.6
20260507034010 56 0 0.0 0.0 0.00 0.00 0.00 80 1020.5
20260507033515 56 0 0.0 0.0 0.00 0.00 0.00 81 1020.5
20260507033036 56 0 0.0 0.0 0.00 0.00 0.00 80 1020.5
20260507032512 56 0 0.0 0.9 0.00 0.00 0.00 80 1020.4
20260507032017 56 0 0.0 1.7 0.00 0.00 0.00 80 1020.4
20260507031531 56 0 0.0 1.7 0.00 0.00 0.00 80 1020.3
20260507031011 56 0 0.0 0.0 0.00 0.00 0.00 79 1020.3
20260507030513 56 0 0.0 0.0 0.00 0.00 0.00 79 1020.2
20260507030032 56 0 0.0 0.0 0.00 0.00 0.00 80 1020.2
20260507025510 56 0 0.0 0.0 0.00 0.00 0.00 80 1020.2
20260507025011 56 0 0.0 0.9 0.00 0.00 0.00 79 1020.2
20260507024534 56 0 0.0 0.9 0.00 0.00 0.00 79 1020.1
20260507024008 56 0 0.0 0.0 0.00 0.00 0.00 79 1020.1
20260507023519 56 0 0.0 0.0 0.00 0.00 0.00 79 1020.1
20260507023031 56 0 0.0 0.9 0.00 0.00 0.00 79 1020.1
20260507022512 56 0 0.0 0.9 0.00 0.00 0.00 79 1020.1
20260507022011 56 0 0.0 1.7 0.00 0.00 0.00 79 1020.0
20260507021529 56 0 0.0 1.7 0.00 0.00 0.00 78 1020.0
20260507021015 56 355 0.0 1.7 0.00 0.00 0.00 78 1020.0
20260507020513 56 0 0.0 1.7 0.00 0.00 0.00 78 1020.0
20260507020030 56 0 0.0 2.6 0.00 0.00 0.00 78 1020.1
20260507015510 56 0 0.9 2.6 0.00 0.00 0.00 78 1020.1
20260507015013 56 355 0.9 3.5 0.00 0.00 0.00 78 1020.1
20260507014530 56 355 0.9 3.5 0.00 0.00 0.00 78 1020.1
20260507014011 56 0 0.0 1.7 0.00 0.00 0.00 79 1020.1
20260507013511 56 0 0.0 1.7 0.00 0.00 0.00 79 1020.1
20260507013037 57 352 0.0 1.7 0.00 0.00 0.00 78 1020.1
20260507012516 57 352 0.0 1.7 0.00 0.00 0.00 78 1020.1
20260507012012 57 0 0.0 0.9 0.00 0.00 0.00 78 1020.1
20260507011538 57 0 0.0 1.7 0.00 0.00 0.00 78 1020.1
20260507011007 57 0 0.0 2.6 0.00 0.00 0.00 78 1020.1
20260507010512 57 0 0.0 2.6 0.00 0.00 0.00 78 1020.1
20260507010032 57 352 0.0 1.7 0.00 0.00 0.00 78 1020.2
20260507005512 57 0 0.0 0.9 0.00 0.00 0.00 78 1020.2
20260507005009 57 0 0.0 2.6 0.00 0.00 0.00 78 1020.2
20260507004532 57 0 0.0 2.6 0.00 0.00 0.00 78 1020.2
20260507004010 57 0 0.9 2.6 0.00 0.00 0.00 77 1020.3
20260507003515 57 352 0.0 2.6 0.00 0.00 0.00 78 1020.3
20260507003031 57 352 0.0 5.2 0.00 0.00 0.00 77 1020.3
20260507002509 57 0 0.9 5.2 0.00 0.00 0.00 77 1020.2
20260507002014 57 0 0.0 3.5 0.00 0.00 0.00 77 1020.2
20260507001533 57 0 0.0 2.6 0.00 0.00 0.00 77 1020.3
20260507001010 57 0 0.0 2.6 0.00 0.00 0.00 77 1020.2
20260507000511 57 83 0.9 2.6 0.00 0.00 0.00 76 1020.3
20260507000030 57 84 0.0 2.6 0.00 0.00 0.00 77 1020.3
20260506235513 57 84 0.0 2.6 0.00 0.00 0.00 77 1020.2
20260506235009 57 84 0.0 2.6 0.00 0.00 0.00 77 1020.2
20260506234541 57 84 0.9 2.6 0.00 0.00 0.00 78 1020.3
20260506234011 57 0 0.0 1.7 0.00 0.00 0.00 78 1020.2
20260506233509 57 86 0.9 1.7 0.00 0.00 0.00 78 1020.3
20260506233033 57 0 0.0 2.6 0.00 0.00 0.00 78 1020.2
20260506232510 57 86 0.0 2.6 0.00 0.00 0.00 78 1020.2
20260506232014 56 86 0.0 2.6 0.00 0.00 0.00 78 1020.4
20260506231535 56 0 0.0 2.6 0.00 0.00 0.00 79 1020.4
20260506231014 56 0 0.0 1.7 0.00 0.00 0.00 79 1020.4
20260506230510 56 0 0.0 3.5 0.00 0.00 0.00 79 1020.4
20260506230028 56 0 0.0 3.5 0.00 0.00 0.00 79 1020.5
20260506225510 56 95 0.0 3.5 0.00 0.00 0.00 79 1020.4
20260506225013 56 98 0.0 3.5 0.00 0.00 0.00 80 1020.3
20260506224531 56 0 0.0 0.9 0.00 0.00 0.00 80 1020.4
20260506224014 56 103 0.0 0.9 0.00 0.00 0.00 80 1020.4
20260506223512 56 0 0.0 1.7 0.00 0.00 0.00 80 1020.4
20260506223031 56 103 0.0 1.7 0.00 0.00 0.00 80 1020.4
20260506222511 56 0 0.0 1.7 0.00 0.00 0.00 80 1020.4
20260506222010 56 0 0.0 1.7 0.00 0.00 0.00 80 1020.4
20260506221531 56 103 0.0 2.6 0.00 0.00 0.00 80 1020.4
20260506221010 56 0 0.0 2.6 0.00 0.00 0.00 80 1020.4
20260506220509 56 0 0.0 2.6 0.00 0.00 0.00 80 1020.4
20260506220032 56 0 0.0 1.7 0.00 0.00 0.00 80 1020.4
20260506215509 56 0 0.0 1.7 0.00 0.00 0.00 80 1020.4
20260506215011 56 0 0.0 2.6 0.00 0.00 0.00 80 1020.4
20260506214531 55 0 0.0 2.6 0.00 0.00 0.00 80 1020.5
20260506214012 56 0 0.0 1.7 0.00 0.00 0.00 81 1020.5
20260506213508 55 0 0.0 2.6 0.00 0.00 0.00 81 1020.4
20260506213030 55 103 0.9 2.6 0.00 0.00 0.00 81 1020.4
20260506212513 55 103 0.0 1.7 0.00 0.00 0.00 81 1020.5
20260506212012 55 0 0.0 1.7 0.00 0.00 0.00 81 1020.4
20260506211528 55 103 0.0 1.7 0.00 0.00 0.00 82 1020.5
20260506211011 55 0 0.0 2.6 0.00 0.00 0.00 82 1020.4
20260506210512 55 0 0.9 2.6 0.00 0.00 0.00 82 1020.4
20260506210031 55 0 0.0 3.5 0.00 0.00 0.00 82 1020.4
20260506205511 55 103 0.0 3.5 0.00 0.00 0.00 82 1020.3
20260506205012 55 103 0.9 3.5 0.00 0.00 0.00 82 1020.3
20260506204534 55 0 0.0 2.6 0.00 0.00 0.00 82 1020.4
20260506204016 55 108 0.0 2.6 0.00 0.00 0.00 82 1020.3
20260506203511 55 108 0.9 2.6 0.00 0.00 0.00 83 1020.3
20260506203043 55 0 0.0 1.7 0.00 0.00 0.00 83 1020.3
20260506202512 55 0 0.0 1.7 0.00 0.00 0.00 84 1020.3
20260506202016 55 0 0.0 1.7 0.00 0.00 0.00 84 1020.3
20260506201529 55 108 0.0 1.7 0.00 0.00 0.00 84 1020.3
20260506201009 55 0 0.0 1.7 0.00 0.00 0.00 84 1020.3
20260506200513 55 0 0.0 1.7 0.00 0.00 0.00 84 1020.2
20260506200041 55 0 0.0 1.7 0.00 0.00 0.00 84 1020.2
20260506195510 55 0 0.0 1.7 0.00 0.00 0.00 84 1020.1
20260506195011 55 0 0.0 2.6 0.00 0.00 0.00 84 1020.1
20260506194531 55 0 0.0 2.6 0.00 0.00 0.00 84 1020.2
20260506194009 55 108 0.9 2.6 0.00 0.00 0.00 84 1020.1
20260506193513 55 0 0.0 0.9 0.00 0.00 0.00 84 1020.1
20260506193031 55 0 0.0 0.9 0.00 0.00 0.00 84 1020.0
20260506192509 55 0 0.0 0.9 0.00 0.00 0.00 84 1020.1
20260506192011 55 0 0.0 1.7 0.00 0.00 0.00 85 1020.0
20260506191532 55 0 0.0 1.7 0.00 0.00 0.00 85 1019.9
20260506191009 55 108 0.0 2.6 0.00 0.00 0.00 85 1020.0
20260506190509 55 108 0.0 2.6 0.00 0.00 0.00 85 1019.9
20260506190039 55 0 0.0 1.7 0.00 0.00 0.00 85 1020.0
20260506185511 54 0 0.0 1.7 0.00 0.00 0.00 85 1020.1
20260506185011 54 109 0.9 2.6 0.00 0.00 0.00 86 1020.1
20260506184531 54 109 0.0 2.6 0.00 0.00 0.00 86 1020.0
20260506184011 54 0 0.0 2.6 0.00 0.00 0.00 86 1020.0
20260506183510 54 0 0.9 2.6 0.00 0.00 0.00 86 1020.0
20260506183028 54 109 0.0 0.9 0.00 0.00 0.00 86 1020.0
20260506182508 54 0 0.0 1.7 0.00 0.00 0.00 86 1020.1
20260506182017 54 0 0.0 1.7 0.00 0.00 0.00 86 1020.0
20260506181528 54 109 0.9 1.7 0.00 0.00 0.00 86 1019.9
20260506181009 54 109 0.0 1.7 0.00 0.00 0.00 86 1019.8
20260506180512 54 0 0.0 1.7 0.00 0.00 0.00 86 1019.7
20260506180033 54 109 0.0 1.7 0.00 0.00 0.00 86 1019.8
20260506175508 54 109 0.0 1.7 0.00 0.00 0.00 86 1019.8
20260506175010 54 0 0.0 3.5 0.00 0.00 0.00 86 1019.7
20260506174531 54 0 0.0 3.5 0.00 0.00 0.00 86 1019.7
20260506174013 54 0 0.0 3.5 0.00 0.00 0.00 86 1019.8
20260506173514 54 0 0.0 3.5 0.00 0.00 0.00 86 1020.0
20260506173039 54 111 0.9 3.5 0.00 0.00 0.00 85 1019.8
20260506172511 55 0 0.0 1.7 0.00 0.00 0.00 85 1020.0
20260506172014 55 0 0.0 1.7 0.00 0.00 0.00 85 1020.0
20260506171532 55 0 0.0 1.7 0.00 0.00 0.00 85 1020.0
20260506171010 55 113 0.0 1.7 0.00 0.00 0.00 85 1019.9
20260506170516 55 113 0.0 2.6 0.00 0.00 0.00 84 1019.9
20260506170032 55 0 0.9 3.5 0.00 0.00 0.00 84 1019.8
20260506165510 55 0 0.9 3.5 0.00 0.00 0.00 84 1019.7
20260506165008 55 112 0.9 3.5 0.00 0.00 0.00 83 1019.7
20260506164532 55 0 0.0 3.5 0.00 0.00 0.00 84 1019.6
20260506164009 55 112 0.0 3.5 0.00 0.00 0.00 84 1019.5
20260506163512 55 113 0.9 3.5 0.00 0.00 0.00 84 1019.4
20260506163050 55 123 0.0 2.6 0.00 0.00 0.00 84 1019.4
20260506162511 55 123 0.9 3.5 0.00 0.00 0.00 85 1019.4
20260506162014 55 0 0.0 4.3 0.00 0.00 0.00 85 1019.3
20260506161531 55 123 0.9 4.3 0.00 0.00 0.00 85 1019.2
20260506161009 55 179 0.0 1.7 0.00 0.00 0.00 85 1019.3
20260506160514 55 179 0.9 3.5 0.00 0.00 0.00 85 1019.4
20260506160032 55 179 0.9 3.5 0.00 0.00 0.00 85 1019.3
20260506155512 54 232 0.0 2.6 0.00 0.00 0.00 86 1019.4
20260506155015 54 234 0.0 3.5 0.00 0.00 0.00 86 1019.4
20260506154536 54 0 0.9 3.5 0.00 0.00 0.00 86 1019.6
20260506154010 54 0 0.0 2.6 0.00 0.00 0.00 86 1019.5
20260506153514 54 0 0.0 3.5 0.00 0.00 0.00 86 1019.5
20260506153031 54 248 0.9 3.5 0.00 0.00 0.00 86 1019.5
20260506152515 54 248 0.9 3.5 0.00 0.00 0.00 86 1019.5
20260506152016 54 0 0.0 3.5 0.00 0.00 0.00 86 1019.4
20260506151539 54 248 0.0 3.5 0.00 0.00 0.00 86 1019.3
20260506151010 54 0 0.0 2.6 0.00 0.00 0.00 86 1019.3
20260506150513 54 244 0.9 3.5 0.00 0.00 0.00 86 1019.2
20260506150030 54 0 0.0 3.5 0.00 0.00 0.00 86 1019.3
20260506145510 54 243 0.9 3.5 0.00 0.00 0.00 86 1019.3
20260506145013 54 246 0.0 2.6 0.00 0.00 0.00 86 1019.3
20260506144531 54 0 0.0 2.6 0.00 0.00 0.00 86 1019.4
20260506144012 54 246 0.0 2.6 0.00 0.00 0.00 86 1019.4
20260506143516 54 0 0.0 1.7 0.00 0.00 0.00 86 1019.3
20260506143032 54 0 0.0 1.7 0.00 0.00 0.00 85 1019.3
20260506142508 54 0 0.0 1.7 0.00 0.00 0.00 85 1019.2
20260506142010 54 0 0.0 0.9 0.00 0.00 0.00 85 1019.1
20260506141529 54 0 0.0 0.9 0.00 0.00 0.00 85 1019.1
20260506141016 54 0 0.0 0.0 0.00 0.00 0.00 85 1019.0
20260506140512 54 0 0.0 0.0 0.00 0.00 0.00 85 1019.1
20260506140033 54 0 0.0 0.9 0.00 0.00 0.00 85 1019.1
20260506135514 54 0 0.0 0.9 0.00 0.00 0.00 85 1019.2
20260506135014 54 0 0.0 1.7 0.00 0.00 0.00 85 1019.1
20260506134528 54 0 0.0 1.7 0.00 0.00 0.00 85 1019.0
20260506134016 54 0 0.0 0.0 0.00 0.00 0.00 85 1019.1
20260506133515 54 0 0.0 1.7 0.00 0.00 0.00 85 1019.0
20260506133033 54 0 0.0 1.7 0.00 0.00 0.00 85 1019.0
20260506132515 54 0 0.0 1.7 0.00 0.00 0.00 85 1018.8
20260506132015 54 0 0.0 1.7 0.00 0.00 0.00 85 1018.9
20260506131535 54 0 0.0 1.7 0.00 0.00 0.00 85 1018.6
20260506131013 54 0 0.0 1.7 0.00 0.00 0.00 85 1018.4
20260506130517 54 0 0.0 1.7 0.00 0.00 0.00 85 1018.6
20260506130031 54 0 0.0 1.7 0.00 0.00 0.00 85 1018.6
20260506125511 54 0 0.0 1.7 0.00 0.00 0.00 85 1018.6
20260506125011 54 0 0.0 1.7 0.00 0.00 0.00 85 1018.5
20260506124529 54 0 0.0 1.7 0.00 0.00 0.00 85 1018.5
20260506124011 54 246 0.0 0.9 0.00 0.00 0.00 85 1018.4
20260506123513 54 0 0.0 2.6 0.00 0.00 0.00 86 1018.3
20260506123028 54 0 0.0 2.6 0.00 0.00 0.00 86 1018.3
20260506122509 54 246 0.0 2.6 0.00 0.00 0.00 86 1018.3
20260506122009 54 0 0.0 0.9 0.00 0.00 0.00 86 1018.3
20260506121528 54 0 0.0 0.9 0.00 0.00 0.00 86 1018.4
20260506121010 54 0 0.0 2.6 0.00 0.00 0.00 86 1018.5
20260506120513 54 0 0.0 2.6 0.00 0.00 0.00 86 1018.4
20260506120032 54 0 0.0 0.0 0.00 0.00 0.00 86 1018.3
20260506115511 54 0 0.0 0.0 0.00 0.00 0.00 87 1018.2
20260506115014 54 0 0.0 0.0 0.00 0.00 0.00 87 1018.1
20260506114529 54 0 0.0 0.0 0.00 0.00 0.00 87 1018.0
20260506114008 54 0 0.0 0.0 0.00 0.00 0.00 87 1018.0
20260506113514 54 0 0.0 0.0 0.00 0.00 0.00 87 1018.0
20260506113032 54 0 0.0 0.0 0.00 0.00 0.00 87 1018.1
20260506112514 54 0 0.0 0.0 0.00 0.00 0.00 87 1018.1
20260506112018 54 0 0.0 0.0 0.00 0.00 0.00 87 1018.0
20260506111531 54 0 0.0 0.0 0.00 0.00 0.00 87 1017.9
20260506111012 54 0 0.0 0.0 0.00 0.00 0.00 87 1017.9
20260506110509 54 0 0.0 0.0 0.00 0.00 0.00 87 1017.9
20260506110030 54 0 0.0 0.9 0.00 0.00 0.00 88 1017.9
20260506105511 54 0 0.0 1.7 0.00 0.00 0.00 88 1017.8
20260506105013 54 0 0.0 1.7 0.00 0.00 0.00 88 1017.8
20260506104528 54 0 0.0 1.7 0.00 0.00 0.00 88 1017.8
20260506104016 53 245 0.0 1.7 0.00 0.00 0.00 89 1017.7
20260506103511 53 0 0.0 0.9 0.00 0.00 0.00 89 1017.6
20260506103030 53 0 0.0 0.9 0.00 0.00 0.00 89 1017.6
20260506102511 53 0 0.0 0.0 0.00 0.00 0.00 89 1017.6
20260506102010 53 0 0.0 0.9 0.00 0.00 0.00 89 1017.7
20260506101530 53 0 0.0 0.9 0.00 0.00 0.00 89 1017.6
20260506101008 53 0 0.0 0.0 0.00 0.00 0.00 89 1017.6
20260506100510 53 0 0.0 0.0 0.00 0.00 0.00 89 1017.5
20260506100031 53 0 0.0 0.0 0.00 0.00 0.00 89 1017.4
20260506095510 53 0 0.0 0.0 0.00 0.00 0.00 89 1017.4
20260506095015 53 0 0.0 0.0 0.00 0.00 0.00 89 1017.4
20260506094529 53 0 0.0 0.0 0.00 0.00 0.00 89 1017.4
20260506094011 52 0 0.0 0.0 0.00 0.00 0.00 89 1017.3
20260506093512 52 0 0.0 0.0 0.00 0.00 0.00 89 1017.4
20260506093028 52 0 0.0 0.0 0.00 0.00 0.00 89 1017.3
20260506092509 52 0 0.0 0.0 0.00 0.00 0.00 89 1017.3
20260506092015 52 0 0.0 0.0 0.00 0.00 0.00 89 1017.3
20260506091530 52 0 0.0 0.0 0.00 0.00 0.00 89 1017.1
20260506091013 52 0 0.0 0.0 0.00 0.00 0.00 89 1017.1
20260506090509 52 0 0.0 0.0 0.00 0.00 0.00 88 1017.1
20260506090032 52 0 0.0 0.0 0.00 0.00 0.00 88 1017.1
20260506085510 52 0 0.0 0.0 0.00 0.00 0.00 88 1017.0
20260506085009 52 0 0.0 0.0 0.00 0.00 0.00 88 1017.0
20260506084537 52 0 0.0 0.0 0.00 0.00 0.00 88 1016.8
20260506084013 52 0 0.0 0.0 0.00 0.00 0.00 88 1016.8
20260506083516 52 0 0.0 0.0 0.00 0.00 0.00 88 1016.8
20260506083032 52 0 0.0 0.0 0.00 0.00 0.00 88 1016.7
20260506082510 52 0 0.0 0.0 0.00 0.00 0.00 88 1016.8
20260506082015 52 0 0.0 0.0 0.00 0.00 0.00 88 1016.8
20260506081535 52 0 0.0 0.0 0.00 0.00 0.00 88 1016.8
20260506081012 52 0 0.0 0.0 0.00 0.00 0.00 88 1016.8
20260506080511 52 0 0.0 0.0 0.00 0.00 0.00 87 1016.8
20260506073516 52 0 0.0 0.0 0.00 0.00 0.00 87 1016.7
20260506073030 52 0 0.0 0.0 0.00 0.00 0.00 87 1016.7
20260506072513 53 0 0.0 0.0 0.00 0.00 0.00 87 1016.7
20260506072011 53 0 0.0 0.0 0.00 0.00 0.00 87 1016.7
20260506071532 53 0 0.0 0.0 0.00 0.00 0.00 87 1016.7
20260506071011 53 0 0.0 0.0 0.00 0.00 0.00 87 1016.6